User: anonymous   Login
Location: Ar Ranvel
(48.3000°N, 4.8833°W)
Time: 15:20:44
(UTC+00:00)
Language:

SPOT 1/Viking Rocket - Orbit

View from above orbital plane
View from above orbital plane
View from above satellite
View from above satellite

Ground track
Ground track

The orbit data is extracted from the following two-line orbital elements,

1 16615U 86019C   21258.96007502  .00000026  00000-0  25511-4 0  9996
2 16615  98.4210 318.3068 0012600 139.2835  33.8010 14.31859852861460
Epoch (UTC): 15 September 2021 23:02:30
Eccentricity: 0.0012600
inclination: 98.4210°
perigee height: 776 km
apogee height: 794 km
right ascension of ascending node: 318.3068°
argument of perigee: 139.2835°
revolutions per day: 14.31859852
mean anomaly at epoch: 33.8010°
orbit number at epoch: 86146

The dashed part of the orbit path shows where the satellite is in the earth's shadow,  

DLR